Location: Bidwell Hollow
(37.7387°N, 90.1707°W)
Time: 01:33:21
(UTC+00:00)

Tiros 1 despin weight - Pass Details

Date: 22 May 2026
Orbit: 554 x 591 km, 48.2° (Epoch: 6 June)

Event Time Altitude Azimuth Distance (km) Brightness Sun altitude
Rises 08:53:33 0° 255° (WSW) 2,778 - -18.6°
Reaches altitude 10° 08:55:55 10° 263° (W) 1,875 - -18.3°
Exits shadow 08:57:54 24° 278° (W) 1,194 ? -18.0°
Maximum altitude 09:00:00 42° 334° (NNW) 820 ? -17.7°
Drops below altitude 10° 09:04:03 10° 46° (NE) 1,858 ? -17.2°
Sets 09:06:23 0° 54° (NE) 2,750 ? -16.8°
